Regional Weather Roundup
Issued by NWS

Home | Current Version | Previous Version | Text Only | Print | Product List | Glossary On
Versions: 1 2 3 4 5 6 7 8 9 10 11 12 13 14 15 16 17 18 19 20 21 22 23 24 25 26 27 28 29 30 31 32 33 34 35 36 37 38 39 40 41 42 43 44 45 46 47 48 49 50
000
ASUS43 KLMK 180610
RWRKY
KENTUCKY REGIONAL WEATHER ROUNDUP
NATIONAL WEATHER SERVICE LOUISVILLE KY
100 AM EST WED JAN 18 2017

NOTE "FAIR" INDICATES FEW OR NO CLOUDS BELOW 12,000 FEET
WITH NO SIGNIFICANT WEATHER AND/OR OBSTRUCTIONS TO VISIBILITY.

KYZ001>023-026-027-061>063-070>075-180700-
WESTERN AND SOUTH CENTRAL KENTUCKY

CITY           SKY/WX    TMP DP  RH WIND       PRES   REMARKS
PADUCAH        CLOUDY    45  39  79 W3        30.17S
HENDERSON      CLOUDY    45  37  76 W6        30.15S
OWENSBORO      CLOUDY    44  40  85 W9        30.15F
HOPKINSVILLE   CLOUDY    44  41  87 NW7       30.16S
BOWLING GREEN  CLOUDY    47  40  76 W9        30.15F
GLASGOW        CLOUDY    45  40  82 W8        30.14S
$$

KYZ024-025-028>034-038-045-046-053-180700-
NORTH CENTRAL KENTUCKY

CITY           SKY/WX    TMP DP  RH WIND       PRES   REMARKS
LOUISVILLE/SDF CLOUDY    45  39  79 SW8       30.11S
LOUISVILLE/LOU CLOUDY    44  39  82 W6        30.12S
FORT KNOX      CLOUDY    42  39  88 SW10      30.10F
$$

KYZ035>037-039>044-047>052-055>060-089>105-180700-
NORTHEAST KENTUCKY

CITY           SKY/WX    TMP DP  RH WIND       PRES   REMARKS
LEXINGTON      CLOUDY    43  39  86 W12G23    30.09R
COVINGTON      CLOUDY    44  40  85 SW8       30.04S
FRANKFORT      CLOUDY    44  37  76 W10G16    30.08S
$$

KYZ054-064>069-076>088-106>120-180700-
SOUTHEAST KENTUCKY

CITY           SKY/WX    TMP DP  RH WIND       PRES   REMARKS
JACKSON        CLOUDY    50  44  80 W8        30.05S
LONDON         CLOUDY    51  45  79 W8        30.09R
SOMERSET       CLOUDY    48  43  81 W8        30.11F
MIDDLESBORO    PTCLDY    57  49  75 NW5       30.07S
MONTICELLO     CLOUDY    50  46  86 W9        30.12F
$$





USA.gov is the U.S. government's official web portal to all federal, state and local government web resources and services.